User: anonymous   Login
Location: ????????
(55.5667°N, 37.5833°E)
Time: 02:46:13
(UTC+00:00)
Language:

Cosmos 1825 Rocket - Orbit

View from above orbital plane
View from above orbital plane
View from above satellite
View from above satellite

Ground track
Ground track

The orbit is defined by the following mean orbital elements,

1 17567U          26158.85906255 +.00000000 +00000-0 +45310-4 0 00008
2 17567  82.5284   8.0194 0017350 326.3168  33.6944 14.86207286    07
Epoch (UTC): 07 June 2026 20:37:03
Eccentricity: 0.0017350
inclination: 82.5284°
perigee height: 598 km
apogee height: 622 km
right ascension of ascending node: 8.0194°
argument of perigee: 326.3168°
revolutions per day: 14.86207286
mean anomaly at epoch: 33.6944°

The dashed part of the orbit path shows where the satellite is in the earth's shadow,  

DLR